Francisco Bangoy International Airport
RPMD : now visible

Airfield :











YOU CAN JOIN US ON...

 
LOGIN :

Register | Disclaimer

   EN    FR    IT 

 









Legend :    VFR   Marginal VFR   IFR   Intensive IFR   Very Intensive IFR
Visi :
Ceiling :
>= 8 km
>= 3000ft
5 to 8 km
1000 to 3000 ft
1500m to 5 km
500 to 1000 ft
800 to 1500m
200 to 500 ft
< 800m
< 200 ft
Symbols :   Thunderstorms  Fog  Heavy snow  Heavy precipitations  Wind > 20 kt






- Airport Elevation : 96 ft
- IATA code : DVO


RPMD - Francisco Bangoy International

CURRENT METAR :
  • 080600Z 01006KT 320V050 9999 FEW016 35/20 Q1008 RMK A2977

EXPIRED METARs :
  • 080500Z 02009KT 350V050 9999 FEW016 34/21 Q1009 RMK A2980
  • 080400Z 03009KT 350V080 9999 FEW016 35/19 Q1010 RMK A2983

TAF TAF RPMD
Valid from the 08 at 06:00 until the 09 at 06:00 UTC


080500Z 0806/0906 03006KT 9999 FEW016 SCT290
TEMPO 0806/0812 35012KT SCT016 SCT090



MET'MAP, your aeronautical weather chart ! - Copyright ORBIFLY December 2007 - Disclaimer

ORBIFLY MET'MAP TEAM :

Programming & Development : Alexandra Zaïnal
Concept & original design : Baudouin d'Aumeries
Assistance for programming : Marc-Olivier Méhu
Technical & hardware support : Manuel Goepfert

Contact : metmap@orbifly.com




SOURCES & CREDITS :

   NOAA       Earth
Advisory